Fort Sill, OK

5:29 PM CST on November 11, 2019 (GMT -0600)
Post Army Air Field

Weather History for KFSI - October, 2019

Change the Weather History Date:

Tuesday, October 15, 2019

  Actual Average Record
Temperature  
Mean Temperature 73 °F -  
Max Temperature 87 °F 77 °F 95 °F (2015)
Min Temperature 56 °F 52 °F 35 °F (2018)
Cooling Degree Days 8    
Growing Degree Days 23 (Base 50)    
Moisture  
Dew Point 64 °F    
Average Humidity 84    
Maximum Humidity 100    
Minimum Humidity 44    
Precipitation  
Precipitation 0.00 in - - ()
Sea Level Pressure  
Sea Level Pressure 29.87 in    
Wind  
Wind Speed 8 mph (South)    
Max Wind Speed 26 mph    
Max Gust Speed 33 mph    
Visibility 9 miles    
Events      
Averages and records for this station are not official NWS values.
T = Trace of Precipitation, MM = Missing Value Source: NWS Daily Summary

Daily Weather History Graph

Daily Weather History Graph

Search for Another Location

Airport or City:

Astronomy

Oct. 15, 2019 Rise Set
Actual Time 7:39 AM CDT 6:59 PM CDT
Civil Twilight 7:13 AM CDT 7:24 PM CDT
Nautical Twilight 6:44 AM CDT 7:53 PM CDT
Astronomical Twilight 6:15 AM CDT 8:22 PM CDT
Moon 8:23 PM CDT (10/15) 9:08 AM CDT (10/15)
Length of Visible Light 12h 10m
Length of Day
11h 20m
Full, 97% of the Moon is Illuminated
Oct 15
Full
Oct 21
Last Quarter
Oct 27
New
Nov 4
First Quarter
Nov 12
Full

Hourly Weather History & Observations

Time (CDT) Temp. Heat Index Dew Point Humidity Pressure Visibility Wind Dir Wind Speed Gust Speed Precip Events Conditions
12:56 AM 64.8 °F - 64.8 °F 100% 29.86 in 10.0 mi SSE 8.1 mph - N/A   Scattered Clouds
1:41 AM 64.4 °F - 64.4 °F 100% 29.86 in 10.0 mi Calm Calm - N/A   Overcast
1:51 AM 64.4 °F - 64.4 °F 100% 29.86 in 10.0 mi SSE 3.5 mph - N/A   Overcast
1:56 AM 64.9 °F - 64.9 °F 100% 29.86 in 10.0 mi SSE 4.6 mph - N/A   Overcast
2:07 AM 64.4 °F - 64.4 °F 100% 29.86 in 10.0 mi SSE 5.8 mph - N/A   Overcast
2:17 AM 66.2 °F - 66.2 °F 100% 29.86 in 10.0 mi SE 6.9 mph - N/A   Overcast
2:47 AM 66.2 °F - 66.2 °F 100% 29.86 in 7.0 mi South 4.6 mph - N/A   Overcast
2:56 AM 65.8 °F - 65.8 °F 100% 29.86 in 8.0 mi SSE 4.6 mph - N/A   Overcast
3:31 AM 68.0 °F - 68.0 °F 100% 29.85 in 8.0 mi SSE 6.9 mph - N/A   Overcast
3:56 AM 68.9 °F - 68.9 °F 100% 29.83 in 9.0 mi South 9.2 mph - N/A   Overcast
4:06 AM 69.8 °F - 69.8 °F 100% 29.82 in 9.0 mi South 11.5 mph - N/A   Overcast
4:56 AM 70.2 °F - 70.2 °F 100% 29.83 in 10.0 mi South 11.5 mph - N/A   Overcast
5:01 AM 69.8 °F - 69.8 °F 100% 29.83 in 10.0 mi South 10.4 mph - N/A   Overcast
5:55 AM 69.8 °F - 69.8 °F 100% 29.83 in 10.0 mi South 9.2 mph - N/A   Overcast
5:56 AM 70.0 °F - 70.0 °F 100% 29.83 in 10.0 mi South 9.2 mph - N/A   Overcast
6:26 AM 69.8 °F - 69.8 °F 100% 29.83 in 8.0 mi South 9.2 mph - N/A   Overcast
6:56 AM 69.4 °F - 69.4 °F 100% 29.83 in 7.0 mi South 6.9 mph - N/A   Overcast
7:01 AM 69.8 °F - 69.8 °F 100% 29.83 in 7.0 mi South 9.2 mph - N/A   Overcast
7:31 AM 69.8 °F - 69.8 °F 100% 29.83 in 6.0 mi South 6.9 mph - N/A   Overcast
7:56 AM 68.9 °F - 68.9 °F 100% 29.83 in 4.0 mi South 5.8 mph - N/A   Overcast
8:26 AM 69.8 °F - 69.8 °F 100% 29.83 in 3.0 mi South 6.9 mph - N/A   Overcast
8:46 AM 69.8 °F - 69.8 °F 100% 29.83 in 4.0 mi South 10.4 mph - N/A   Overcast
8:56 AM 69.3 °F - 69.3 °F 100% 29.84 in 5.0 mi South 6.9 mph - N/A   Overcast
9:21 AM 69.8 °F - 69.8 °F 100% 29.84 in 9.0 mi SSW 6.9 mph - N/A   Overcast
9:32 AM 71.6 °F - 71.6 °F 100% 29.85 in 10.0 mi SSW 9.2 mph - N/A   Overcast
9:47 AM 71.6 °F - 71.6 °F 100% 29.84 in 10.0 mi SSW 9.2 mph - N/A   Mostly Cloudy
9:56 AM 72.7 °F - 70.9 °F 94% 29.84 in 10.0 mi SSW 6.9 mph - N/A   Mostly Cloudy
10:01 AM 73.4 °F - 69.8 °F 88% 29.84 in 10.0 mi SW 8.1 mph - N/A   Scattered Clouds
10:56 AM 77.7 °F - 68.4 °F 73% 29.84 in 10.0 mi WSW 8.1 mph - N/A   Clear
11:56 AM 79.7 °F - 67.3 °F 66% 29.85 in 10.0 mi West 4.6 mph - N/A   Clear
12:56 PM 84.2 °F 86.3 °F 65.7 °F 54% 29.84 in 10.0 mi NNW 5.8 mph - N/A   Partly Cloudy
1:56 PM 85.3 °F 87.4 °F 65.7 °F 52% 29.82 in 10.0 mi NW 8.1 mph - N/A   Clear
2:56 PM 87.6 °F 88.5 °F 63.5 °F 44% 29.82 in 10.0 mi North 12.7 mph - N/A   Clear
3:56 PM 80.2 °F 82.1 °F 65.1 °F 60% 29.84 in 10.0 mi North 23.0 mph 33.4 mph N/A   Clear
4:56 PM 75.6 °F - 60.3 °F 59% 29.88 in 10.0 mi NNE 24.2 mph 33.4 mph N/A   Clear
5:56 PM 73.2 °F - 57.0 °F 57% 29.89 in 10.0 mi North 26.5 mph 33.4 mph N/A   Clear
6:56 PM 70.0 °F - 48.7 °F 47% 29.92 in 10.0 mi NNE 25.3 mph 32.2 mph N/A   Clear
7:56 PM 66.4 °F - 45.0 °F 46% 29.96 in 10.0 mi North 20.7 mph 27.6 mph N/A   Clear
8:56 PM 64.6 °F - 43.9 °F 47% 30.02 in 10.0 mi NNE 16.1 mph 24.2 mph N/A   Clear
9:56 PM 62.4 °F - 43.0 °F 49% 30.06 in 10.0 mi NNE 15.0 mph 25.3 mph N/A   Clear
10:56 PM 59.7 °F - 41.5 °F 51% 30.11 in 10.0 mi NNE 13.8 mph - N/A   Clear
11:56 PM 56.1 °F - 41.2 °F 57% 30.13 in 10.0 mi North 10.4 mph - N/A   Clear